FW9006 Weather Reports


Display with metric or nautical units.
time (UTC)temp
F
wind
direction
speed
MPH
gust
MPH
rain 1hr
in
rain 24hr
in
rain mn
in
humidity
%
barometer
mb
20260507142520 48 310 3.0 7.0 0.00 0.00 0.00 48 1014.0
20260507141520 48 320 5.0 14.0 0.00 0.00 0.00 48 1013.9
20260507140521 49 316 3.0 8.0 0.00 0.00 0.00 49 1014.1
20260507135521 49 290 2.0 3.0 0.00 0.00 0.00 51 1014.0
20260507134524 48 256 3.0 7.0 0.00 0.00 0.00 52 1013.9
20260507133520 48 269 1.0 6.0 0.00 0.00 0.00 56 1013.8
20260507132521 47 289 2.0 5.0 0.00 0.00 0.00 59 1013.8
20260507131520 46 305 2.0 5.0 0.00 0.00 0.00 60 1013.8
20260507130520 46 306 1.0 4.0 0.00 0.00 0.00 61 1013.8
20260507125541 45 284 2.0 7.0 0.00 0.00 0.00 62 1013.6
20260507124520 45 276 2.0 6.0 0.00 0.00 0.00 65 1013.6
20260507123520 44 312 1.0 3.0 0.00 0.00 0.00 67 1013.6
20260507122541 44 312 1.0 4.0 0.00 0.00 0.00 69 1013.6
20260507121520 43 225 1.0 4.0 0.00 0.00 0.00 70 1013.5
20260507120600 43 310 1.0 7.0 0.00 0.00 0.00 70 1013.5
20260507115541 42 224 1.0 4.0 0.00 0.00 0.00 71 1013.5
20260507114521 41 237 0.0 3.0 0.00 0.00 0.00 73 1013.3
20260507113520 39 241 1.0 3.0 0.00 0.00 0.00 75 1013.2
20260507112520 39 215 0.0 2.0 0.00 0.00 0.00 75 1013.1
20260507111541 38 222 1.0 3.0 0.00 0.00 0.00 75 1013.0
20260507110520 38 197 0.0 2.0 0.00 0.00 0.00 75 1012.8
20260507105600 38 0.0 0.0 0.00 0.00 0.00 74 1012.8
20260507104521 38 0.0 0.0 0.00 0.00 0.00 74 1012.7
20260507103520 38 0.0 0.0 0.00 0.00 0.00 74 1012.7
20260507102520 38 0.0 0.0 0.00 0.00 0.00 74 1012.7
20260507101520 38 0.0 0.0 0.00 0.00 0.00 74 1012.6
20260507100521 38 0.0 0.0 0.00 0.00 0.00 73 1012.5
20260507095541 38 0.0 0.0 0.00 0.00 0.00 73 1012.6
20260507094541 38 0.0 0.0 0.00 0.00 0.00 73 1012.6
20260507093519 38 0.0 0.0 0.00 0.00 0.00 73 1012.6
20260507092520 38 0.0 0.0 0.00 0.00 0.00 75 1012.7
20260507091519 38 0.0 0.0 0.00 0.00 0.00 75 1012.7
20260507090519 38 0.0 0.0 0.00 0.00 0.00 74 1012.8
20260507085519 39 0.0 0.0 0.00 0.00 0.00 73 1012.8
20260507084519 39 0.0 0.0 0.00 0.00 0.00 72 1012.8
20260507083519 39 0.0 0.0 0.00 0.00 0.00 72 1012.9
20260507082519 40 0.0 0.0 0.00 0.00 0.00 70 1012.8
20260507081540 40 0.0 0.0 0.00 0.00 0.00 70 1012.9
20260507080519 40 0.0 0.0 0.00 0.00 0.00 70 1013.0
20260507075519 40 0.0 0.0 0.00 0.00 0.00 69 1013.1
20260507074520 41 0.0 0.0 0.00 0.00 0.00 68 1013.1
20260507073519 41 0.0 0.0 0.00 0.00 0.00 66 1013.1
20260507072539 42 0.0 0.0 0.00 0.00 0.00 65 1013.0
20260507071519 43 323 0.0 2.0 0.00 0.00 0.00 64 1013.0
20260507070519 43 324 1.0 4.0 0.00 0.00 0.00 64 1013.0
20260507065520 43 323 2.0 6.0 0.00 0.00 0.00 63 1013.1
20260507064519 44 322 2.0 5.0 0.00 0.00 0.00 63 1013.3
20260507063520 44 321 2.0 5.0 0.00 0.00 0.00 62 1013.3
20260507062540 45 321 2.0 7.0 0.00 0.00 0.00 62 1013.2
20260507061520 45 323 3.0 7.0 0.00 0.00 0.00 61 1013.1
20260507060621 46 321 2.0 5.0 0.00 0.00 0.00 60 1013.1
20260507055519 46 309 2.0 4.0 0.00 0.00 0.00 59 1013.0
20260507054521 46 314 1.0 4.0 0.00 0.00 0.00 59 1013.1
20260507053519 45 0.0 0.0 0.00 0.00 0.00 61 1013.2
20260507052519 45 0.0 0.0 0.00 0.00 0.00 59 1013.1
20260507051519 45 0.0 0.0 0.00 0.00 0.00 58 1013.2
20260507050519 45 0.0 0.0 0.00 0.00 0.00 58 1013.2
20260507045519 45 0.0 0.0 0.00 0.00 0.00 57 1013.3
20260507044519 45 0.0 0.0 0.00 0.00 0.00 57 1013.2
20260507043519 45 0.0 0.0 0.00 0.00 0.00 57 1013.2
20260507042519 45 0.0 0.0 0.00 0.00 0.00 56 1013.2
20260507041519 45 0.0 0.0 0.00 0.00 0.00 56 1013.2
20260507040519 45 0.0 0.0 0.00 0.00 0.00 56 1013.2
20260507035519 46 0.0 0.0 0.00 0.00 0.00 55 1013.2
20260507034519 46 0.0 0.0 0.00 0.00 0.00 53 1013.1
20260507033519 47 0.0 0.0 0.00 0.00 0.00 52 1013.2
20260507032519 47 0.0 2.0 0.00 0.00 0.00 51 1013.2
20260507031519 47 295 1.0 2.0 0.00 0.00 0.00 50 1013.3
20260507030519 48 265 0.0 2.0 0.00 0.00 0.00 49 1013.2
20260507025519 48 318 1.0 2.0 0.00 0.00 0.00 50 1013.3
20260507024519 48 326 0.0 1.0 0.00 0.00 0.00 49 1013.2
20260507023519 48 332 1.0 3.0 0.00 0.00 0.00 49 1013.2
20260507022519 49 293 0.0 2.0 0.00 0.00 0.00 48 1013.1
20260507021519 49 274 0.0 2.0 0.00 0.00 0.00 48 1013.0
20260507020519 49 296 0.0 2.0 0.00 0.00 0.00 48 1013.0
20260507015519 49 273 0.0 4.0 0.00 0.00 0.00 47 1012.9
20260507014519 49 244 0.0 2.0 0.00 0.00 0.00 46 1012.8
20260507013519 49 240 0.0 3.0 0.00 0.00 0.00 46 1012.8
20260507012521 50 31 0.0 2.0 0.00 0.00 0.00 46 1012.7
20260507011518 50 65 0.0 1.0 0.00 0.00 0.00 45 1012.7
20260507010540 50 300 1.0 2.0 0.00 0.00 0.00 44 1012.7
20260507005519 50 254 0.0 3.0 0.00 0.00 0.00 44 1012.7
20260507004519 50 290 0.0 2.0 0.00 0.00 0.00 44 1012.7
20260507003519 51 295 1.0 3.0 0.00 0.00 0.00 44 1012.7
20260507002519 51 302 1.0 4.0 0.00 0.00 0.00 44 1012.5
20260507001519 51 275 1.0 3.0 0.00 0.00 0.00 43 1012.4
20260507000519 51 318 2.0 4.0 0.00 0.00 0.00 43 1012.4
20260506235519 51 296 1.0 3.0 0.00 0.00 0.00 42 1012.5
20260506234519 51 317 2.0 8.0 0.00 0.00 0.00 41 1012.4
20260506233519 52 323 2.0 5.0 0.00 0.00 0.00 41 1012.4
20260506232518 52 305 2.0 7.0 0.00 0.00 0.00 40 1012.4
20260506231539 52 321 3.0 10.0 0.00 0.00 0.00 41 1012.4
20260506230559 52 324 4.0 9.0 0.00 0.00 0.00 40 1012.4
20260506225518 52 319 3.0 8.0 0.00 0.00 0.00 39 1012.4
20260506224519 53 319 4.0 8.0 0.00 0.00 0.00 39 1012.4
20260506223519 53 317 3.0 11.0 0.00 0.00 0.00 39 1012.4
20260506222519 54 313 3.0 9.0 0.00 0.00 0.00 39 1012.4
20260506221519 54 238 3.0 9.0 0.00 0.00 0.00 37 1012.4
20260506220519 55 273 2.0 5.0 0.00 0.00 0.00 37 1012.3
20260506215518 54 313 4.0 12.0 0.00 0.00 0.00 38 1012.3
20260506214519 54 299 2.0 7.0 0.00 0.00 0.00 38 1012.4
20260506213519 53 294 2.0 12.0 0.00 0.00 0.00 38 1012.3
20260506212541 53 298 2.0 5.0 0.00 0.00 0.00 39 1012.3
20260506211518 53 325 6.0 16.0 0.00 0.00 0.00 38 1012.3
20260506210519 53 310 3.0 7.0 0.00 0.00 0.00 39 1012.3
20260506205539 54 316 3.0 7.0 0.00 0.00 0.00 37 1012.4
20260506204519 54 310 3.0 9.0 0.00 0.00 0.00 36 1012.4
20260506203519 54 300 3.0 10.0 0.00 0.00 0.00 37 1012.4
20260506202519 54 315 3.0 7.0 0.00 0.00 0.00 36 1012.4
20260506201519 56 264 3.0 9.0 0.00 0.00 0.00 34 1012.5
20260506195519 55 323 5.0 13.0 0.00 0.00 0.00 34 1012.5
20260506194519 55 262 2.0 10.0 0.00 0.00 0.00 36 1012.5
20260506193519 55 303 3.0 6.0 0.00 0.00 0.00 35 1012.6
20260506192519 55 312 3.0 9.0 0.00 0.00 0.00 36 1012.6
20260506191519 55 310 4.0 9.0 0.00 0.00 0.00 35 1012.5
20260506190519 55 283 3.0 9.0 0.00 0.00 0.00 36 1012.6
20260506185519 55 314 3.0 8.0 0.00 0.00 0.00 37 1012.6
20260506184519 55 315 5.0 12.0 0.00 0.00 0.00 35 1012.6
20260506183519 54 304 3.0 10.0 0.00 0.00 0.00 37 1012.6
20260506182518 55 319 4.0 9.0 0.00 0.00 0.00 37 1012.5
20260506181519 55 297 4.0 16.0 0.00 0.00 0.00 37 1012.6
20260506180518 54 322 4.0 8.0 0.00 0.00 0.00 38 1012.4
20260506175518 53 323 5.0 10.0 0.00 0.00 0.00 38 1012.5
20260506174519 53 293 2.0 7.0 0.00 0.00 0.00 38 1012.4
20260506173519 53 293 2.0 7.0 0.00 0.00 0.00 40 1012.6
20260506172518 52 318 2.0 7.0 0.00 0.00 0.00 39 1012.7
20260506171519 52 321 4.0 10.0 0.00 0.00 0.00 39 1012.8
20260506170519 53 313 3.0 12.0 0.00 0.00 0.00 41 1012.8
20260506165519 52 323 4.0 7.0 0.00 0.00 0.00 42 1012.9
20260506164519 52 327 5.0 10.0 0.00 0.00 0.00 41 1012.8
20260506163539 51 323 2.0 9.0 0.00 0.00 0.00 43 1012.9
20260506162518 51 322 3.0 8.0 0.00 0.00 0.00 42 1012.9
20260506161518 52 327 4.0 8.0 0.00 0.00 0.00 41 1013.1
20260506160518 53 313 3.0 7.0 0.00 0.00 0.00 40 1013.2
20260506155538 53 316 3.0 7.0 0.00 0.00 0.00 40 1013.3
20260506154538 52 313 2.0 5.0 0.00 0.00 0.00 43 1013.1
20260506153619 51 330 1.0 3.0 0.00 0.00 0.00 42 1013.2
20260506152518 51 312 2.0 7.0 0.00 0.00 0.00 42 1013.1
20260506151518 51 325 3.0 6.0 0.00 0.00 0.00 42 1013.1
20260506150518 50 15 4.0 9.0 0.00 0.00 0.00 43 1013.1
20260506145518 50 321 2.0 7.0 0.00 0.00 0.00 43 1013.1
20260506144518 50 298 3.0 6.0 0.00 0.00 0.00 44 1013.0
20260506143538 49 219 1.0 4.0 0.00 0.00 0.00 48 1012.8